sat.trackr.live / text

‹ back to catalog

JCSAT-18 (KACIFIC 1)

NORAD 44868 · 2019-091A

PAYLOAD ACTIVE UNKNOWN

§ Identity

Operator
Country
JPN
Launch date
2019-12-17
Launch site
AFETR
Launch vehicle
Mass (kg)
RCS (m²)

Purposes: comms

External: N2YO · Heavens-Above · Gunter

§ Orbital elements

Epoch: 2026-09-19T05:54:38.775168Z

Period
1,436.09 min
Inclination
0.0459°
Eccentricity
0.0000049
Mean motion
1.00272027 rev/d
Perigee alt
35,786.3 km
Apogee alt
35,786.7 km
Semi-major
42,164.7 km
B*
0.0000e+0
RAAN
332.7011°
Arg perigee
209.1870°
Mean anomaly
54.9528°
Rev number
2,495

§ Raw data

JCSAT-18 (KACIFIC 1)1 44868U 19091A   26262.24628212 -.00000205  00000+0  00000+0 0  99912 44868   0.0459 332.7011 0000049 209.1870  54.9528  1.00272027 24951

JSON: /api/v1/satellites/44868 · /tle

For live sub-satellite position, see the globe view (requires WebGL).

§ Visibility from observer

Set your observer location to see the next 7 days of passes ≥ 10°. The values pass through the URL so the page stays shareable.

No JS? Fill the form by hand. The geolocation button needs JavaScript.